www.pogodaiklimat.ru

Погода и климат >> Архив погоды >> Япония >> Акита


ПОГОДА в Аките

  • Прогноз погоды в Аките
  • Монитор погоды в Аките

АРХИВ ПОГОДЫ в Аките

Время (UTC), дата Ветер
(напр.,м/с)
 
Видим.   Явления Облачность Т
(С)
Тd
(С)
f
(%)
Тe
(С)
Тes
(С)
Комфортность P
(гПа)
Po
(гПа)
Тmin
(С)
Tmax
(С)
R
(мм)
R24
(мм)
S
(см)
08 15.08 ЮВ 8 н/о н/о +34.3 +22.7 51 +44 +44 опасность
перегрева
997.7 995.3
09 15.08 ЮВ 9 25 км 1/1
[Cu hum]
+33.2 +22.3 53 +42 +42 опасность
перегрева
997.4 995.0
10 15.08 В 8 н/о н/о +32.0 +22.1 56 +41 +41 опасность
перегрева
997.4 995.0
11 15.08 В 8 н/о н/о +31.1 +22.1 59 +40 +40 очень
душно
997.5 995.1
12 15.08 В 7 15 км 3/0
[Ac trans]
+30.7 +22.3 61 +40 +40 очень
душно
997.5 995.1 +36.8
13 15.08 В 8 н/о н/о +30.6 +22.2 61 +40 +40 очень
душно
996.9 994.5
14 15.08 В 8 н/о н/о +30.5 +22.1 61 +39 +39 очень
душно
996.1 993.7
15 15.08 ЮВ 8 н/о н/о +30.5 +22.7 63 +40 +40 очень
душно
995.8 993.4
16 15.08 В 9 н/о н/о +30.5 +22.7 63 +40 +40 очень
душно
994.9 992.5
17 15.08 В 10 н/о н/о +30.4 +22.6 63 +40 +40 очень
душно
994.2 991.8
18 15.08 В 9 15 км 3/0
[Ac trans]
+30.2 +21.8 61 +39 +39 очень
душно
993.6 991.2
19 15.08 В 9 н/о н/о +30.0 +22.2 63 +39 +39 очень
душно
993.2 990.8
20 15.08 В 9 н/о н/о +30.0 +22.2 63 +39 +39 очень
душно
992.8 990.4
21 15.08 В 9 30 км 9/3
[Sc Ac trans Ci sp]
+30.3 +22.2 62 +39 +39 очень
душно
992.5 990.1
22 15.08 В 9 н/о н/о +31.7 +22.4 58 +41 +41 опасность
перегрева
992.5 990.1
23 15.08 В 8 н/о н/о +32.2 +22.9 58 +42 +42 опасность
перегрева
992.2 989.8
00 16.08 ЮВ 9 30 км в посл. час ливневой дождь 9/1
[Cu med, cong Ac As Ci sp]
+31.9 +22.9 59 +42 +42 опасность
перегрева
992.8 990.4 +29.9 0.0
01 16.08 ЮВ 7 н/о н/о +31.5 +22.8 60 +41 +41 опасность
перегрева
992.8 990.4
02 16.08 ЮВ 7 н/о н/о +28.7 +24.9 80 +41 +41 опасность
перегрева
993.1 990.7
03 16.08 ЮВ 6 3000 м сильн. ливневой дождь 10/10
[Cu med, cong]
+26.6 +25.4 93 +39 +39 очень
душно
993.2 990.8
04 16.08 ЮВ 6 н/о н/о +26.4 +25.5 95 +39 +39 очень
душно
992.9 990.5
05 16.08 ЮВ 7 н/о н/о +26.1 +25.8 98 +38 +38 очень
душно
992.9 990.5
06 16.08 ЮВ 6 8000 м слаб. ливневой дождь 10/10
[Cu med, cong]
+26.1 +25.6 97 +38 +38 очень
душно
992.5 990.1 18
07 16.08 Ю 6 н/о н/о +26.1 +24.9 93 +37 +37 очень
душно
992.8 990.4
08 16.08 Ю 5 н/о н/о +26.5 +25.1 92 +38 +38 очень
душно
993.0 990.6
09 16.08 Ю 8 5000 м слаб. ливневой дождь 9/9
[Cu med, cong]
+26.8 +25.8 94 +40 +40 очень
душно
994.0 991.6
11 16.08 ЮЗ 10 н/о н/о +27.7 +25.3 87 +40 +40 очень
душно
995.6 993.2
12 16.08 ЮЗ 7 7000 м дымка {ливн. осадки} 9/9
[Cu med, cong]
+27.4 +25.2 88 +40 +40 очень
душно
996.2 993.8 +32.0 23
13 16.08 ЮЗ 9 н/о н/о +27.3 +25.3 89 +40 +40 очень
душно
996.7 994.3
15 16.08 ЮЗ 8 н/о н/о +27.2 +24.9 87 +39 +39 очень
душно
997.4 995.0
16 16.08 ЮЗ 9 н/о н/о +26.8 +24.8 89 +38 +38 очень
душно
997.5 995.1
17 16.08 ЮЗ 8 н/о н/о +26.7 +24.6 88 +38 +38 очень
душно
998.0 995.6
18 16.08 ЮЗ 9 7000 м дымка {ливн. осадки} 9/9
[Cu med, cong]
+26.6 +24.5 88 +37 +37 очень
душно
998.7 996.2 0.0
19 16.08 ЮЗ 9 н/о н/о +26.5 +24.2 87 +37 +37 очень
душно
998.9 996.4
20 16.08 ЮЗ 7 н/о н/о +26.5 +24.5 89 +37 +37 очень
душно
999.2 996.7
21 16.08 З 7 10 км в посл. час ливневой дождь 9/8
[Cu Sc Ac trans]
+26.2 +24.8 92 +37 +37 очень
душно
999.9 997.4
22 16.08 З 6 н/о н/о +26.7 +25.1 91 +38 +38 очень
душно
1000.3 997.8
23 16.08 ЮЗ 6 н/о н/о +27.0 +25.4 91 +39 +39 очень
душно
1000.6 998.1
00 17.08 З 9 8000 м дымка {ливн. осадки} 8/5
[Cu med, cong Ac trans]
+27.9 +24.8 83 +40 +40 очень
душно
1001.0 998.6 +26.0 2
01 17.08 ЮЗ 9 н/о н/о +28.3 +24.9 82 +41 +41 опасность
перегрева
1001.5 999.1
02 17.08 З 9 н/о н/о +29.1 +25.1 79 +42 +42 опасность
перегрева
1001.7 999.3
03 17.08 З 9 7000 м в посл. час ливневой дождь 8/8
[Cu med, cong Ac trans]
+29.3 +25.1 78 +42 +43 опасность
перегрева
1001.9 999.5
04 17.08 З 8 н/о н/о +28.5 +24.9 81 +41 +41 опасность
перегрева
1002.0 999.6
05 17.08 З 8 н/о н/о +28.0 +25.0 84 +40 +40 очень
душно
1001.9 999.5
06 17.08 З 7 4000 м дымка {ливн. осадки} 9/9
[Cu med, cong]
+27.9 +25.3 86 +41 +41 опасность
перегрева
1001.8 999.4 0.0
07 17.08 З 9 н/о н/о +28.4 +25.0 82 +41 +41 опасность
перегрева
1002.0 999.6
08 17.08 З 7 н/о н/о +27.9 +25.2 85 +40 +40 очень
душно
1002.3 999.9
09 17.08 З 5 8000 м дымка 9/9
[Cu med, cong]
+27.3 +25.1 88 +39 +39 очень
душно
1002.8 1000.3
10 17.08 З 6 н/о н/о +26.9 +24.9 89 +39 +39 очень
душно
1003.6 1001.1
12 17.08 З 5 8000 м дымка 9/9
[Cu med, cong]
+26.6 +24.8 90 +38 +38 очень
душно
1004.6 1002.1 +29.9 0.0
13 17.08 З 5 н/о н/о +26.1 +24.5 91 +37 +37 очень
душно
1005.1 1002.6
14 17.08 З 4 н/о н/о +25.8 +24.0 90 +36 +36 очень
душно
1005.4 1002.9
15 17.08 З 2 н/о н/о +25.7 +23.9 90 +35 +35 очень
душно
1005.7 1003.2
16 17.08 Ю 1 н/о н/о +25.4 +23.6 90 +35 +35 очень
душно
1005.8 1003.3
18 17.08 В 2 5000 м туман местами 3/3
[Cu med, cong]
+24.4 +23.6 95 +33 +33 очень
душно
1006.6 1004.1
21 17.08 В 3 5000 м туман местами 3/3
[St]
+23.1 +21.7 92 +31 +32 очень
душно
1007.7 1005.2
00 18.08 Ю 2 8000 м дымка 8/8
[Cu med, cong]
+27.9 +23.5 77 +38 +40 очень
душно
1008.7 1006.2 +23.0
03 18.08 З 5 15 км 1/1
[Cu med, cong]
+30.3 +23.0 65 +40 +49 очень
душно
1008.6 1006.2
06 18.08 ЮЗ 3 15 км 1/1
[Cu med, cong]
+30.7 +21.5 58 +39 +46 очень
душно
1008.1 1005.7
09 18.08 З 2 15 км 1/0
[Ac trans]
+29.1 +22.4 67 +38 +38 очень
душно
1008.3 1005.8
12 18.08 СВ 1 15 км ясно +26.2 +20.1 69 +32 +32 очень
душно
1009.3 1006.8 +31.1
15 18.08 В 2 н/о н/о +24.3 +20.2 78 +30 +30 очень
душно
1009.5 1007.0
18 18.08 ЮВ 5 15 км 1/0
[Ac trans]
+23.2 +20.9 87 +31 +31 очень
душно
1010.3 1007.8
21 18.08 ЮВ 4 20 км 3/0
[Ac trans Cc]
+23.0 +20.9 88 +30 +31 очень
душно
1011.2 1008.7
00 19.08 В 6 20 км 5/1
[Cu med, cong Ac trans Ci fib]
+29.6 +20.5 58 +36 +40 очень
душно
1011.3 1008.8 +22.6
03 19.08 ЮВ 4 20 км 1/1
[Cu hum Ac trans Ci fib]
+33.1 +22.2 53 +42 +52 опасность
перегрева
1010.2 1007.8
06 19.08 ЮВ 5 20 км 3/1
[Cu med, cong Ac As Ci fib]
+33.8 +21.6 49 +42 +46 опасность
перегрева
1009.5 1007.1
09 19.08 ЮВ 5 15 км 9/0
[Ac As]
+30.9 +22.2 60 +40 +40 очень
душно
1009.6 1007.2
10 19.08 ЮВ 5 н/о н/о +29.4 +22.1 65 +38 +38 очень
душно
1010.5 1008.0
11 19.08 ЮВ 6 н/о н/о +28.4 +21.7 67 +36 +36 очень
душно
1011.1 1008.6
12 19.08 ЮВ 5 10 км 9/0
[Ac As]
+27.8 +21.8 70 +36 +36 очень
душно
1011.6 1009.1 +34.9
13 19.08 ЮВ 4 н/о н/о +26.4 +22.9 81 +35 +35 очень
душно
1012.1 1009.6
14 19.08 В 4 н/о н/о +25.0 +23.1 89 +33 +33 очень
душно
1012.0 1009.5
15 19.08 ЮВ 4 н/о н/о +24.5 +22.2 87 +32 +32 очень
душно
1011.8 1009.3
16 19.08 В 3 н/о н/о +24.4 +22.8 91 +32 +32 очень
душно
1011.1 1008.6
17 19.08 ЮВ 4 н/о н/о +24.1 +22.5 91 +32 +32 очень
душно
1010.7 1008.2
18 19.08 В 3 10 км слаб. дождь 10/9
[Sc As op]
+24.0 +22.6 92 +31 +31 очень
душно
1010.5 1008.0 2
19 19.08 ЮВ 3 н/о н/о +23.6 +22.4 93 +31 +31 очень
душно
1010.6 1008.1
20 19.08 В 4 н/о н/о +22.7 +22.2 97 +31 +31 очень
душно
1010.5 1008.0
21 19.08 С 4 1500 м ливневой дождь 10/10
[Cu med, cong]
+22.5 +22.2 98 +30 +30 очень
душно
1010.6 1008.1
22 19.08 СВ 3 н/о н/о +22.5 +22.3 99 +30 +30 очень
душно
1010.4 1007.9
23 19.08 В 5 н/о н/о +22.4 +21.7 96 +30 +30 очень
душно
1009.7 1007.2
00 20.08 В 6 4000 м слаб. ливневой дождь 9/9
[Cu med, cong]
+22.8 +21.4 92 +30 +31 очень
душно
1009.7 1007.2 +22.3 47
01 20.08 В 5 н/о н/о +22.5 +21.8 96 +30 +30 очень
душно
1010.1 1007.6
02 20.08 В 5 н/о н/о +22.6 +21.8 95 +30 +30 очень
душно
1009.6 1007.1
03 20.08 ЮВ 5 10 км слаб. ливневой дождь 10/10
[Cu med, cong]
+23.2 +22.2 94 +32 +32 очень
душно
1008.9 1006.4
04 20.08 ЮВ 5 н/о н/о +22.9 +21.9 94 +31 +31 очень
душно
1009.0 1006.5
05 20.08 ЮВ 4 н/о н/о +23.4 +22.6 95 +32 +32 очень
душно
1009.0 1006.5
06 20.08 З 4 10 км {ливн. осадки} 9/9
[Cu med, cong Ac As]
+25.6 +23.3 87 +34 +35 очень
душно
1009.7 1007.2 3
07 20.08 ЮЗ 4 н/о н/о +26.0 +22.7 82 +34 +34 очень
душно
1009.5 1007.0
08 20.08 З 3 н/о н/о +25.9 +22.0 79 +33 +33 очень
душно
1009.4 1006.9
09 20.08 В 1 15 км слаб. ливневой дождь 9/9
[Cu med, cong]
+25.1 +23.0 88 +33 +33 очень
душно
1009.3 1006.8
10 20.08 В 2 н/о н/о +24.4 +22.8 91 +32 +32 очень
душно
1009.6 1007.1
11 20.08 В 2 н/о н/о +24.1 +22.9 93 +32 +32 очень
душно
1010.1 1007.6
12 20.08 ЮВ 2 15 км {ливн. осадки} 9/9
[Cu med, cong Ac As]
+23.6 +22.9 96 +31 +31 очень
душно
1010.2 1007.7 +26.4 3
13 20.08 ЮВ 3 н/о н/о +23.5 +22.7 95 +31 +31 очень
душно
1010.2 1007.7
14 20.08 ЮВ 3 н/о н/о +23.2 +22.5 96 +32 +32 очень
душно
1010.1 1007.6
15 20.08 ЮВ 2 н/о н/о +23.0 +22.2 95 +31 +31 очень
душно
1009.7 1007.2
16 20.08 В 2 н/о н/о +22.8 +22.1 96 +31 +31 очень
душно
1009.3 1006.8
17 20.08 ЮВ 2 н/о н/о +22.8 +22.0 95 +31 +31 очень
душно
1009.1 1006.6
18 20.08 ЮВ 2 5000 м туман местами {ливн. осадки} 9/8
[Cu med, cong Ac As]
+22.7 +22.0 96 +31 +31 очень
душно
1009.1 1006.6 0.0
20 20.08 ЮВ 2 н/о н/о +22.6 +21.8 95 +30 +30 очень
душно
1010.0 1007.5
21 20.08 В 2 6000 м дымка 9/1
[Cu med, cong Ac trans Cc]
+22.7 +21.9 95 +30 +31 очень
душно
1010.5 1008.0
22 20.08 В 2 н/о н/о +23.0 +22.0 94 +31 +31 очень
душно
1010.4 1007.9
23 20.08 ЮВ 2 н/о н/о +24.1 +22.5 91 +32 +32 очень
душно
1010.5 1008.0
00 21.08 ЮВ 2 8000 м дымка 9/5
[Cu med, cong Ac trans]
+25.1 +22.6 86 +33 +36 очень
душно
1010.6 1008.1 +22.5 0.0
01 21.08 Ю 2 н/о н/о +26.8 +22.4 77 +35 +35 очень
душно
1010.2 1007.7
02 21.08 ЮЗ 3 н/о н/о +28.8 +20.0 59 +35 +35 очень
душно
1009.8 1007.3
03 21.08 З 4 20 км 8/3
[Cu med, cong Ac trans Ci sp]
+28.0 +20.6 64 +35 +40 очень
душно
1009.7 1007.2
05 21.08 З 4 н/о н/о +27.5 +21.8 71 +35 +35 очень
душно
1009.0 1006.5
06 21.08 З 4 20 км 9/1
[Cu med, cong Ac trans Cs]
+27.4 +22.1 73 +36 +39 очень
душно
1009.4 1006.9
07 21.08 З 3 н/о н/о +27.0 +21.3 71 +34 +34 очень
душно
1009.0 1006.5
08 21.08 СЗ 2 н/о н/о +26.7 +21.0 71 +34 +34 очень
душно
1009.0 1006.5
09 21.08 СЗ 2 15 км 9/1
[Cu med, cong Ac As Ci sp]
+26.4 +20.7 71 +33 +33 очень
душно
1008.5 1006.0
10 21.08 С 3 н/о н/о +25.5 +22.0 81 +33 +33 очень
душно
1009.3 1006.8
11 21.08 С 2 н/о н/о +25.0 +21.9 83 +32 +32 очень
душно
1009.5 1007.0
12 21.08 СВ 1 10 км 9/3
[Cu med, cong Ac As]
+24.9 +22.4 86 +33 +33 очень
душно
1009.6 1007.1 +29.5
13 21.08 В 3 н/о н/о +24.4 +22.5 89 +32 +32 очень
душно
1009.0 1006.5
15 21.08 ЮВ 2 н/о н/о +24.2 +21.9 87 +31 +31 очень
душно
1009.2 1006.7
16 21.08 ЮВ 3 н/о н/о +24.3 +21.0 82 +31 +31 очень
душно
1008.6 1006.1
17 21.08 ЮВ 2 н/о н/о +24.2 +20.9 82 +30 +30 очень
душно
1009.3 1006.8
18 21.08 ЮВ 3 10 км 10/10
[Cu med, cong]
+24.1 +20.8 82 +30 +30 очень
душно
1009.0 1006.5
19 21.08 ЮВ 3 н/о н/о +23.8 +20.7 83 +30 +30 очень
душно
1008.9 1006.4
20 21.08 ЮВ 3 н/о н/о +23.5 +20.6 84 +29 +29 душно 1009.2 1006.7
21 21.08 ЮВ 3 20 км {ливн. осадки} 9/9
[Sc Ac As Ci sp]
+23.5 +20.8 85 +29 +30 душно 1009.6 1007.1
22 21.08 ЮВ 3 н/о н/о +24.1 +20.6 81 +30 +30 очень
душно
1009.6 1007.1
23 21.08 ЮВ 3 н/о н/о +25.5 +20.8 75 +32 +32 очень
душно
1009.7 1007.2
00 22.08 ЮВ 6 25 км {ливн. осадки} 9/1
[Cu med, cong Ac As Ci sp]
+27.6 +21.4 69 +35 +38 очень
душно
1009.3 1006.8 +23.4 0.0
01 22.08 ЮВ 3 н/о н/о +27.7 +21.5 69 +35 +35 очень
душно
1009.6 1007.1
02 22.08 Ю 2 н/о н/о +28.7 +22.0 67 +37 +37 очень
душно
1008.9 1006.4
03 22.08 ЮЗ 5 20 км 9/3
[Cu med, cong Cs]
+29.8 +21.2 60 +37 +42 очень
душно
1008.6 1006.2
04 22.08 З 4 н/о н/о +29.0 +22.5 68 +38 +38 очень
душно
1008.4 1005.9
05 22.08 ЮЗ 4 н/о н/о +28.0 +23.2 75 +38 +38 очень
душно
1008.4 1005.9
06 22.08 З 4 20 км 9/9
[Cu med, cong Ci sp]
+28.3 +23.0 73 +38 +38 очень
душно
1008.5 1006.0

 

Местоположение метеостанции Акита (Япония): широта 39.72 долгота 140.10 высота над уровнем моря 21 м.

В архиве по умолчанию представлена погода в Аките за последнюю неделю. Архивные данные за месяц целиком и за предыдущие месяцы, начиная с января 2011 года, Вы можете получить, выбрав интересующий диапазон дат из раскрывающегося списка и нажав кнопку "Ввод!".


*Определитесь, кто Вы:
робот инопланетянин человек

Внимание! Время в таблицах - всемирное. Для получения местного времени необходимо прибавить поправку, которая равна 9 ч.

Смотрите также архив погоды в соседних городах и на ближайших метеорологических станциях:

Погода в Мориоке (Япония) (91 км)
Погода в Сакате (Япония) (92 км)
Погода в Фукауре (Япония) (104 км)
Погода в Синдзё (Япония) (109 км)
Погода в Аомори (Япония) (135 км)
Погода в Хатинохе (Япония) (150 км)
Погода в Офунато (Япония) (156 км)
Погода в Мияко (Япония) (159 км)
Погода в Ямаге (Япония) (165 км)
Погода в Сендае (Япония) (175 км)

Пояснения к столбцам:

Ветер - указаны скорость ветра в м/с - средняя за 10 мин, порывы в срок и между сроками (в фигурных скобках) и направление, откуда дует ветер: С - северный, СВ - северо-восточный, В - восточный, ЮВ - юго-восточный, Ю - южный, ЮЗ - юго-западный, З - западный, СЗ - северо-западный.
Видимость - горизонтальная дальность видимости в метрах или километрах. При видимости от 1 до 10 км при отсутствии осадков обычно наблюдается дымка, при ухудшении видимости до 1 км и менее - туман. В сухую погоду видимость может ухудшаться дымом, пылью или мглою.
Явления - указаны атмосферные явления, наблюдавшиеся в срок или в последний час перед сроком; фигурными скобками обозначены явления, наблюдавшиеся между сроками (за 1-3 часа до срока); квадратными скобками обозначены град или гололедные отложения с указанием их диаметра в мм.
Облачность - указаны через наклонную черту общая и нижняя облачность в баллах и высота нижней границы облаков в метрах; квадратными скобками обозначены формы облаков: Ci - перистые, Cs - перисто-слоистые, Cc - перисто-кучевые, Ac - высококучевые, As - высокослоистые, Sc - слоисто-кучевые, Ns - слоисто-дождевые, Cu - кучевые, Cb - кучево-дождевые. Подробнее классификацию облаков см. в Атласе облаков (PDF).
T - Температура воздуха - температура, измеренная на высоте 2 м над землей.
Td - Температура точки росы - температура, при понижении до которой содержащийся в воздухе водяной пар достигнет насыщения.
f - Относительная влажность воздуха - влажноcть воздуха, измеренная на высоте 2 м над землей.
Te - Эффективная температура - температура, которую ощущает одетый по сезону человек в тени. Характеристика душности погоды. При расчете учитывается влияние влажности воздуха и скорости ветра на теплоощущения человека.
Tes - Эффективная температура на солнце - температура, которую ощущает человек, с поправкой на солнечный нагрев. Характеристика знойности погоды. Зависит от высоты солнца над горизонтом, облачности и скорости ветра. Ночью, в пасмурную погоду, а также при ветре 12 м/с и более поправка равна нулю.
P - Атмосферное давление - приведенное к уровню моря атмосферное давление.
Po - Атмосферное давление - измеренное на уровне метеостанции атмосферное давление.
Tmin - Минимальная температура - минимум температуры воздуха на высоте 2 м над землей.
Tmax - Максимальная температура - максимум температуры воздуха на высоте 2 м над землей.
R - Количество осадков - Количество выпавших осадков за период времени, мм. При наведении курсора мыши на число - период времени, за который выпало указанное количество осадков.
R24 - Количество осадков - Количество выпавших осадков за 24 часа, мм.
S - Снежный покров - Высота снежного покрова, см. При наведении курсора мыши на число - состояние снежного покрова и степень покрытия местности в баллах.